owner,sensor,date,latitude,longitude,air_temperature,qcFlag 
WAVCIS,ioos:station:WAVCIS:CSI06:1,2009-02-01T00:00:00Z,28.8667,-90.4833,13.87,11111222 
WAVCIS,ioos:station:WAVCIS:CSI06:1,2009-02-01T01:00:00Z,28.8667,-90.4833,13.92,11111222 
WAVCIS,ioos:station:WAVCIS:CSI06:1,2009-02-01T02:00:00Z,28.8667,-90.4833,13.89,11111222 
WAVCIS,ioos:station:WAVCIS:CSI06:1,2009-02-01T03:00:00Z,28.8667,-90.4833,13.92,11111222 
WAVCIS,ioos:station:WAVCIS:CSI06:1,2009-02-01T04:00:00Z,28.8667,-90.4833,13.75,11111222 
WAVCIS,ioos:station:WAVCIS:CSI06:1,2009-02-01T05:00:00Z,28.8667,-90.4833,13.84,11111222 
WAVCIS,ioos:station:WAVCIS:CSI06:1,2009-02-01T06:00:00Z,28.8667,-90.4833,13.96,11111222 
WAVCIS,ioos:station:WAVCIS:CSI06:1,2009-02-01T07:00:00Z,28.8667,-90.4833,13.92,11111222 
WAVCIS,ioos:station:WAVCIS:CSI06:1,2009-02-01T08:00:00Z,28.8667,-90.4833,13.99,11111222 
WAVCIS,ioos:station:WAVCIS:CSI06:1,2009-02-01T09:00:00Z,28.8667,-90.4833,14.14,11111222 
WAVCIS,ioos:station:WAVCIS:CSI06:1,2009-02-01T10:00:00Z,28.8667,-90.4833,14.26,11111222 
WAVCIS,ioos:station:WAVCIS:CSI06:1,2009-02-01T11:00:00Z,28.8667,-90.4833,14.18,11111222 
WAVCIS,ioos:station:WAVCIS:CSI06:1,2009-02-01T12:00:00Z,28.8667,-90.4833,14.34,11111222 
WAVCIS,ioos:station:WAVCIS:CSI06:1,2009-02-01T13:00:00Z,28.8667,-90.4833,14.3,11111222 
WAVCIS,ioos:station:WAVCIS:CSI06:1,2009-02-01T14:00:00Z,28.8667,-90.4833,14.36,11111222 
WAVCIS,ioos:station:WAVCIS:CSI06:1,2009-02-01T15:00:00Z,28.8667,-90.4833,14.85,11111222 
WAVCIS,ioos:station:WAVCIS:CSI06:1,2009-02-01T16:00:00Z,28.8667,-90.4833,14.95,11111222 
WAVCIS,ioos:station:WAVCIS:CSI06:1,2009-02-01T17:00:00Z,28.8667,-90.4833,16.09,11111222 
WAVCIS,ioos:station:WAVCIS:CSI06:1,2009-02-01T18:00:00Z,28.8667,-90.4833,16.1,11111222 
WAVCIS,ioos:station:WAVCIS:CSI06:1,2009-02-01T19:00:00Z,28.8667,-90.4833,16.05,11111222 
WAVCIS,ioos:station:WAVCIS:CSI06:1,2009-02-01T20:00:00Z,28.8667,-90.4833,16.36,11111222 
WAVCIS,ioos:station:WAVCIS:CSI06:1,2009-02-01T21:00:00Z,28.8667,-90.4833,16.1,11111222 
WAVCIS,ioos:station:WAVCIS:CSI06:1,2009-02-01T22:00:00Z,28.8667,-90.4833,16.07,11111222 
WAVCIS,ioos:station:WAVCIS:CSI06:1,2009-02-01T23:00:00Z,28.8667,-90.4833,16.38,11111222 
WAVCIS,ioos:station:WAVCIS:CSI06:1,2009-02-02T00:00:00Z,28.8667,-90.4833,15.69,11111222 
WAVCIS,ioos:station:WAVCIS:CSI06:1,2009-02-02T01:00:00Z,28.8667,-90.4833,15.43,11111222 
WAVCIS,ioos:station:WAVCIS:CSI06:1,2009-02-02T02:00:00Z,28.8667,-90.4833,15.5,11111222 
WAVCIS,ioos:station:WAVCIS:CSI06:1,2009-02-02T03:00:00Z,28.8667,-90.4833,15.31,11111222 
WAVCIS,ioos:station:WAVCIS:CSI06:1,2009-02-02T04:00:00Z,28.8667,-90.4833,15.43,11111222 
WAVCIS,ioos:station:WAVCIS:CSI06:1,2009-02-02T05:00:00Z,28.8667,-90.4833,15.79,11111222 
WAVCIS,ioos:station:WAVCIS:CSI06:1,2009-02-02T06:00:00Z,28.8667,-90.4833,15.99,11111222 
WAVCIS,ioos:station:WAVCIS:CSI06:1,2009-02-02T07:00:00Z,28.8667,-90.4833,16.05,11111222 
WAVCIS,ioos:station:WAVCIS:CSI06:1,2009-02-02T08:00:00Z,28.8667,-90.4833,16.13,11111222 
WAVCIS,ioos:station:WAVCIS:CSI06:1,2009-02-02T09:00:00Z,28.8667,-90.4833,16.48,11111222 
WAVCIS,ioos:station:WAVCIS:CSI06:1,2009-02-02T10:00:00Z,28.8667,-90.4833,16.9,11111222 
WAVCIS,ioos:station:WAVCIS:CSI06:1,2009-02-02T11:00:00Z,28.8667,-90.4833,15.03,11111222 
WAVCIS,ioos:station:WAVCIS:CSI06:1,2009-02-02T12:00:00Z,28.8667,-90.4833,15.53,11111222 
WAVCIS,ioos:station:WAVCIS:CSI06:1,2009-02-02T13:00:00Z,28.8667,-90.4833,15.27,11111222 
WAVCIS,ioos:station:WAVCIS:CSI06:1,2009-02-02T14:00:00Z,28.8667,-90.4833,16.0,11111222 
WAVCIS,ioos:station:WAVCIS:CSI06:1,2009-02-02T15:00:00Z,28.8667,-90.4833,14.58,11111222 
WAVCIS,ioos:station:WAVCIS:CSI06:1,2009-02-02T16:00:00Z,28.8667,-90.4833,13.87,11111222 
WAVCIS,ioos:station:WAVCIS:CSI06:1,2009-02-02T17:00:00Z,28.8667,-90.4833,14.52,11111222 
WAVCIS,ioos:station:WAVCIS:CSI06:1,2009-02-02T18:00:00Z,28.8667,-90.4833,14.77,11111222 
WAVCIS,ioos:station:WAVCIS:CSI06:1,2009-02-02T19:00:00Z,28.8667,-90.4833,14.74,11111222 
WAVCIS,ioos:station:WAVCIS:CSI06:1,2009-02-02T20:00:00Z,28.8667,-90.4833,15.83,11111222 
WAVCIS,ioos:station:WAVCIS:CSI06:1,2009-02-02T21:00:00Z,28.8667,-90.4833,14.69,11111222 
WAVCIS,ioos:station:WAVCIS:CSI06:1,2009-02-02T22:00:00Z,28.8667,-90.4833,14.38,11111222 
WAVCIS,ioos:station:WAVCIS:CSI06:1,2009-02-02T23:00:00Z,28.8667,-90.4833,12.35,11111222 
WAVCIS,ioos:station:WAVCIS:CSI06:1,2009-02-03T00:00:00Z,28.8667,-90.4833,12.55,11111222 
WAVCIS,ioos:station:WAVCIS:CSI06:1,2009-02-03T01:00:00Z,28.8667,-90.4833,12.89,11111222 
WAVCIS,ioos:station:WAVCIS:CSI06:1,2009-02-03T02:00:00Z,28.8667,-90.4833,12.83,11111222 
WAVCIS,ioos:station:WAVCIS:CSI06:1,2009-02-03T03:00:00Z,28.8667,-90.4833,12.22,11111222 
WAVCIS,ioos:station:WAVCIS:CSI06:1,2009-02-03T04:00:00Z,28.8667,-90.4833,11.3,11111222 
WAVCIS,ioos:station:WAVCIS:CSI06:1,2009-02-03T05:00:00Z,28.8667,-90.4833,10.56,11111222 
WAVCIS,ioos:station:WAVCIS:CSI06:1,2009-02-03T06:00:00Z,28.8667,-90.4833,9.57,11111222 
WAVCIS,ioos:station:WAVCIS:CSI06:1,2009-02-03T07:00:00Z,28.8667,-90.4833,9.12,11111222 
WAVCIS,ioos:station:WAVCIS:CSI06:1,2009-02-03T08:00:00Z,28.8667,-90.4833,8.92,11111222 
WAVCIS,ioos:station:WAVCIS:CSI06:1,2009-02-03T09:00:00Z,28.8667,-90.4833,8.67,11111222 
WAVCIS,ioos:station:WAVCIS:CSI06:1,2009-02-03T10:00:00Z,28.8667,-90.4833,8.62,11111222 
WAVCIS,ioos:station:WAVCIS:CSI06:1,2009-02-03T11:00:00Z,28.8667,-90.4833,8.4,11111222 
WAVCIS,ioos:station:WAVCIS:CSI06:1,2009-02-03T12:00:00Z,28.8667,-90.4833,8.06,11111222 
WAVCIS,ioos:station:WAVCIS:CSI06:1,2009-02-03T13:00:00Z,28.8667,-90.4833,8.28,11111222 
WAVCIS,ioos:station:WAVCIS:CSI06:1,2009-02-03T14:00:00Z,28.8667,-90.4833,8.9,11111222 
WAVCIS,ioos:station:WAVCIS:CSI06:1,2009-02-03T15:00:00Z,28.8667,-90.4833,9.67,11111222 
WAVCIS,ioos:station:WAVCIS:CSI06:1,2009-02-03T16:00:00Z,28.8667,-90.4833,9.83,11111222 
WAVCIS,ioos:station:WAVCIS:CSI06:1,2009-02-03T17:00:00Z,28.8667,-90.4833,10.51,11111222 
WAVCIS,ioos:station:WAVCIS:CSI06:1,2009-02-03T18:00:00Z,28.8667,-90.4833,11.0,11111222 
WAVCIS,ioos:station:WAVCIS:CSI06:1,2009-02-03T19:00:00Z,28.8667,-90.4833,11.21,11111222 
WAVCIS,ioos:station:WAVCIS:CSI06:1,2009-02-03T20:00:00Z,28.8667,-90.4833,11.05,11111222 
WAVCIS,ioos:station:WAVCIS:CSI06:1,2009-02-03T21:00:00Z,28.8667,-90.4833,11.11,11111222 
WAVCIS,ioos:station:WAVCIS:CSI06:1,2009-02-03T22:00:00Z,28.8667,-90.4833,11.53,11111222 
WAVCIS,ioos:station:WAVCIS:CSI06:1,2009-02-03T23:00:00Z,28.8667,-90.4833,11.93,11111222 
WAVCIS,ioos:station:WAVCIS:CSI06:1,2009-02-04T00:00:00Z,28.8667,-90.4833,12.08,11111222 
WAVCIS,ioos:station:WAVCIS:CSI06:1,2009-02-04T01:00:00Z,28.8667,-90.4833,12.46,11111222 
WAVCIS,ioos:station:WAVCIS:CSI06:1,2009-02-04T02:00:00Z,28.8667,-90.4833,12.9,11111222 
WAVCIS,ioos:station:WAVCIS:CSI06:1,2009-02-04T03:00:00Z,28.8667,-90.4833,13.23,11111222 
WAVCIS,ioos:station:WAVCIS:CSI06:1,2009-02-04T04:00:00Z,28.8667,-90.4833,13.44,11111222 
WAVCIS,ioos:station:WAVCIS:CSI06:1,2009-02-04T05:00:00Z,28.8667,-90.4833,13.51,11111222 
WAVCIS,ioos:station:WAVCIS:CSI06:1,2009-02-04T06:00:00Z,28.8667,-90.4833,13.48,11111222 
WAVCIS,ioos:station:WAVCIS:CSI06:1,2009-02-04T07:00:00Z,28.8667,-90.4833,12.97,11111222 
WAVCIS,ioos:station:WAVCIS:CSI06:1,2009-02-04T08:00:00Z,28.8667,-90.4833,11.93,11111222 
WAVCIS,ioos:station:WAVCIS:CSI06:1,2009-02-04T09:00:00Z,28.8667,-90.4833,11.28,11111222 
WAVCIS,ioos:station:WAVCIS:CSI06:1,2009-02-04T10:00:00Z,28.8667,-90.4833,10.15,11111222 
WAVCIS,ioos:station:WAVCIS:CSI06:1,2009-02-04T11:00:00Z,28.8667,-90.4833,9.21,11111222 
WAVCIS,ioos:station:WAVCIS:CSI06:1,2009-02-04T12:00:00Z,28.8667,-90.4833,7.49,11111222 
WAVCIS,ioos:station:WAVCIS:CSI06:1,2009-02-04T13:00:00Z,28.8667,-90.4833,6.27,11111222 
WAVCIS,ioos:station:WAVCIS:CSI06:1,2009-02-04T14:00:00Z,28.8667,-90.4833,5.559,11111222 
WAVCIS,ioos:station:WAVCIS:CSI06:1,2009-02-04T15:00:00Z,28.8667,-90.4833,5.145,11111222 
WAVCIS,ioos:station:WAVCIS:CSI06:1,2009-02-04T16:00:00Z,28.8667,-90.4833,4.756,11111222 
WAVCIS,ioos:station:WAVCIS:CSI06:1,2009-02-04T17:00:00Z,28.8667,-90.4833,4.755,11111222 
WAVCIS,ioos:station:WAVCIS:CSI06:1,2009-02-04T18:00:00Z,28.8667,-90.4833,4.707,11111222 
WAVCIS,ioos:station:WAVCIS:CSI06:1,2009-02-04T19:00:00Z,28.8667,-90.4833,4.7,11111222 
WAVCIS,ioos:station:WAVCIS:CSI06:1,2009-02-04T20:00:00Z,28.8667,-90.4833,5.551,11111222 
WAVCIS,ioos:station:WAVCIS:CSI06:1,2009-02-04T21:00:00Z,28.8667,-90.4833,6.02,11111222 
WAVCIS,ioos:station:WAVCIS:CSI06:1,2009-02-04T22:00:00Z,28.8667,-90.4833,6.59,11111222 
WAVCIS,ioos:station:WAVCIS:CSI06:1,2009-02-04T23:00:00Z,28.8667,-90.4833,7.21,11111222 
WAVCIS,ioos:station:WAVCIS:CSI06:1,2009-02-05T00:00:00Z,28.8667,-90.4833,7.11,11111222 
WAVCIS,ioos:station:WAVCIS:CSI06:1,2009-02-05T01:00:00Z,28.8667,-90.4833,7.06,11111222 
WAVCIS,ioos:station:WAVCIS:CSI06:1,2009-02-05T02:00:00Z,28.8667,-90.4833,7.26,11111222 
WAVCIS,ioos:station:WAVCIS:CSI06:1,2009-02-05T03:00:00Z,28.8667,-90.4833,7.35,11111222 
WAVCIS,ioos:station:WAVCIS:CSI06:1,2009-02-05T04:00:00Z,28.8667,-90.4833,7.66,11111222 
WAVCIS,ioos:station:WAVCIS:CSI06:1,2009-02-05T05:00:00Z,28.8667,-90.4833,7.66,11111222 
WAVCIS,ioos:station:WAVCIS:CSI06:1,2009-02-05T06:00:00Z,28.8667,-90.4833,7.63,11111222 
WAVCIS,ioos:station:WAVCIS:CSI06:1,2009-02-05T07:00:00Z,28.8667,-90.4833,7.88,11111222 
WAVCIS,ioos:station:WAVCIS:CSI06:1,2009-02-05T08:00:00Z,28.8667,-90.4833,7.86,11111222 
WAVCIS,ioos:station:WAVCIS:CSI06:1,2009-02-05T09:00:00Z,28.8667,-90.4833,7.8,11111222 
WAVCIS,ioos:station:WAVCIS:CSI06:1,2009-02-05T10:00:00Z,28.8667,-90.4833,7.93,11111222 
WAVCIS,ioos:station:WAVCIS:CSI06:1,2009-02-05T11:00:00Z,28.8667,-90.4833,8.23,11111222 
WAVCIS,ioos:station:WAVCIS:CSI06:1,2009-02-05T12:00:00Z,28.8667,-90.4833,8.45,11111222 
WAVCIS,ioos:station:WAVCIS:CSI06:1,2009-02-05T13:00:00Z,28.8667,-90.4833,8.61,11111222 
WAVCIS,ioos:station:WAVCIS:CSI06:1,2009-02-05T14:00:00Z,28.8667,-90.4833,9.29,11111222 
WAVCIS,ioos:station:WAVCIS:CSI06:1,2009-02-05T15:00:00Z,28.8667,-90.4833,9.62,11111222 
WAVCIS,ioos:station:WAVCIS:CSI06:1,2009-02-05T16:00:00Z,28.8667,-90.4833,9.84,11111222 
WAVCIS,ioos:station:WAVCIS:CSI06:1,2009-02-05T17:00:00Z,28.8667,-90.4833,10.0,11111222 
WAVCIS,ioos:station:WAVCIS:CSI06:1,2009-02-05T18:00:00Z,28.8667,-90.4833,10.16,11111222 
WAVCIS,ioos:station:WAVCIS:CSI06:1,2009-02-05T19:00:00Z,28.8667,-90.4833,10.42,11111222 
WAVCIS,ioos:station:WAVCIS:CSI06:1,2009-02-05T20:00:00Z,28.8667,-90.4833,10.83,11111222 
WAVCIS,ioos:station:WAVCIS:CSI06:1,2009-02-05T21:00:00Z,28.8667,-90.4833,11.33,11111222 
WAVCIS,ioos:station:WAVCIS:CSI06:1,2009-02-05T22:00:00Z,28.8667,-90.4833,11.82,11111222 
WAVCIS,ioos:station:WAVCIS:CSI06:1,2009-02-05T23:00:00Z,28.8667,-90.4833,12.41,11111222 
WAVCIS,ioos:station:WAVCIS:CSI06:1,2009-02-06T00:00:00Z,28.8667,-90.4833,12.7,11111222 
WAVCIS,ioos:station:WAVCIS:CSI06:1,2009-02-06T01:00:00Z,28.8667,-90.4833,13.38,11111222 
WAVCIS,ioos:station:WAVCIS:CSI06:1,2009-02-06T02:00:00Z,28.8667,-90.4833,13.59,11111222 
WAVCIS,ioos:station:WAVCIS:CSI06:1,2009-02-06T03:00:00Z,28.8667,-90.4833,13.87,11111222 
WAVCIS,ioos:station:WAVCIS:CSI06:1,2009-02-06T04:00:00Z,28.8667,-90.4833,14.15,11111222 
WAVCIS,ioos:station:WAVCIS:CSI06:1,2009-02-06T05:00:00Z,28.8667,-90.4833,14.43,11111222 
WAVCIS,ioos:station:WAVCIS:CSI06:1,2009-02-06T06:00:00Z,28.8667,-90.4833,14.61,11111222 
WAVCIS,ioos:station:WAVCIS:CSI06:1,2009-02-06T07:00:00Z,28.8667,-90.4833,14.75,11111222 
WAVCIS,ioos:station:WAVCIS:CSI06:1,2009-02-06T08:00:00Z,28.8667,-90.4833,14.94,11111222 
WAVCIS,ioos:station:WAVCIS:CSI06:1,2009-02-06T09:00:00Z,28.8667,-90.4833,15.14,11111222 
WAVCIS,ioos:station:WAVCIS:CSI06:1,2009-02-06T10:00:00Z,28.8667,-90.4833,15.26,11111222 
WAVCIS,ioos:station:WAVCIS:CSI06:1,2009-02-06T11:00:00Z,28.8667,-90.4833,15.44,11111222 
WAVCIS,ioos:station:WAVCIS:CSI06:1,2009-02-06T12:00:00Z,28.8667,-90.4833,15.61,11111222 
WAVCIS,ioos:station:WAVCIS:CSI06:1,2009-02-06T13:00:00Z,28.8667,-90.4833,15.84,11111222 
WAVCIS,ioos:station:WAVCIS:CSI06:1,2009-02-06T14:00:00Z,28.8667,-90.4833,16.16,11111222 
WAVCIS,ioos:station:WAVCIS:CSI06:1,2009-02-06T15:00:00Z,28.8667,-90.4833,16.37,11111222 
WAVCIS,ioos:station:WAVCIS:CSI06:1,2009-02-06T16:00:00Z,28.8667,-90.4833,16.44,11111222 
WAVCIS,ioos:station:WAVCIS:CSI06:1,2009-02-06T17:00:00Z,28.8667,-90.4833,16.47,11111222 
WAVCIS,ioos:station:WAVCIS:CSI06:1,2009-02-06T18:00:00Z,28.8667,-90.4833,16.54,11111222 
WAVCIS,ioos:station:WAVCIS:CSI06:1,2009-02-06T19:00:00Z,28.8667,-90.4833,16.63,11111222 
WAVCIS,ioos:station:WAVCIS:CSI06:1,2009-02-06T20:00:00Z,28.8667,-90.4833,16.68,11111222 
WAVCIS,ioos:station:WAVCIS:CSI06:1,2009-02-06T21:00:00Z,28.8667,-90.4833,16.74,11111222 
WAVCIS,ioos:station:WAVCIS:CSI06:1,2009-02-06T22:00:00Z,28.8667,-90.4833,16.79,11111222 
WAVCIS,ioos:station:WAVCIS:CSI06:1,2009-02-06T23:00:00Z,28.8667,-90.4833,16.75,11111222 
WAVCIS,ioos:station:WAVCIS:CSI06:1,2009-02-07T00:00:00Z,28.8667,-90.4833,16.6,11111222 
WAVCIS,ioos:station:WAVCIS:CSI06:1,2009-02-07T01:00:00Z,28.8667,-90.4833,16.6,11111222 
WAVCIS,ioos:station:WAVCIS:CSI06:1,2009-02-07T02:00:00Z,28.8667,-90.4833,16.63,11111222 
WAVCIS,ioos:station:WAVCIS:CSI06:1,2009-02-07T03:00:00Z,28.8667,-90.4833,16.75,11111222 
WAVCIS,ioos:station:WAVCIS:CSI06:1,2009-02-07T04:00:00Z,28.8667,-90.4833,17.27,11111222 
WAVCIS,ioos:station:WAVCIS:CSI06:1,2009-02-07T05:00:00Z,28.8667,-90.4833,17.56,11111222 
WAVCIS,ioos:station:WAVCIS:CSI06:1,2009-02-07T06:00:00Z,28.8667,-90.4833,17.35,11111222 
WAVCIS,ioos:station:WAVCIS:CSI06:1,2009-02-07T07:00:00Z,28.8667,-90.4833,17.31,11111222 
WAVCIS,ioos:station:WAVCIS:CSI06:1,2009-02-07T08:00:00Z,28.8667,-90.4833,17.25,11111222 
WAVCIS,ioos:station:WAVCIS:CSI06:1,2009-02-07T09:00:00Z,28.8667,-90.4833,17.37,11111222 
WAVCIS,ioos:station:WAVCIS:CSI06:1,2009-02-07T10:00:00Z,28.8667,-90.4833,17.66,11111222 
WAVCIS,ioos:station:WAVCIS:CSI06:1,2009-02-07T11:00:00Z,28.8667,-90.4833,17.67,11111222 
WAVCIS,ioos:station:WAVCIS:CSI06:1,2009-02-07T12:00:00Z,28.8667,-90.4833,17.77,11111222 
WAVCIS,ioos:station:WAVCIS:CSI06:1,2009-02-07T13:00:00Z,28.8667,-90.4833,17.88,11111222 
WAVCIS,ioos:station:WAVCIS:CSI06:1,2009-02-07T14:00:00Z,28.8667,-90.4833,18.17,11111222 
WAVCIS,ioos:station:WAVCIS:CSI06:1,2009-02-07T15:00:00Z,28.8667,-90.4833,18.2,11111222 
WAVCIS,ioos:station:WAVCIS:CSI06:1,2009-02-07T16:00:00Z,28.8667,-90.4833,18.79,11111222 
WAVCIS,ioos:station:WAVCIS:CSI06:1,2009-02-07T17:00:00Z,28.8667,-90.4833,18.95,11111222 
WAVCIS,ioos:station:WAVCIS:CSI06:1,2009-02-07T18:00:00Z,28.8667,-90.4833,20.23,11111222 
WAVCIS,ioos:station:WAVCIS:CSI06:1,2009-02-07T19:00:00Z,28.8667,-90.4833,19.01,11111222 
WAVCIS,ioos:station:WAVCIS:CSI06:1,2009-02-07T20:00:00Z,28.8667,-90.4833,19.22,11111222 
WAVCIS,ioos:station:WAVCIS:CSI06:1,2009-02-07T21:00:00Z,28.8667,-90.4833,19.12,11111222 
WAVCIS,ioos:station:WAVCIS:CSI06:1,2009-02-07T22:00:00Z,28.8667,-90.4833,19.36,11111222 
WAVCIS,ioos:station:WAVCIS:CSI06:1,2009-02-07T23:00:00Z,28.8667,-90.4833,19.53,11111222 
WAVCIS,ioos:station:WAVCIS:CSI06:1,2009-02-08T00:00:00Z,28.8667,-90.4833,19.11,11111222 
WAVCIS,ioos:station:WAVCIS:CSI06:1,2009-02-08T01:00:00Z,28.8667,-90.4833,18.89,11111222 
WAVCIS,ioos:station:WAVCIS:CSI06:1,2009-02-08T02:00:00Z,28.8667,-90.4833,18.79,11111222 
WAVCIS,ioos:station:WAVCIS:CSI06:1,2009-02-08T03:00:00Z,28.8667,-90.4833,18.84,11111222 
WAVCIS,ioos:station:WAVCIS:CSI06:1,2009-02-08T04:00:00Z,28.8667,-90.4833,18.21,11111222 
WAVCIS,ioos:station:WAVCIS:CSI06:1,2009-02-08T05:00:00Z,28.8667,-90.4833,18.2,11111222 
WAVCIS,ioos:station:WAVCIS:CSI06:1,2009-02-08T06:00:00Z,28.8667,-90.4833,18.1,11111222 
WAVCIS,ioos:station:WAVCIS:CSI06:1,2009-02-08T07:00:00Z,28.8667,-90.4833,18.08,11111222 
WAVCIS,ioos:station:WAVCIS:CSI06:1,2009-02-08T08:00:00Z,28.8667,-90.4833,17.97,11111222 
WAVCIS,ioos:station:WAVCIS:CSI06:1,2009-02-08T09:00:00Z,28.8667,-90.4833,18.07,11111222 
WAVCIS,ioos:station:WAVCIS:CSI06:1,2009-02-08T10:00:00Z,28.8667,-90.4833,17.99,11111222 
WAVCIS,ioos:station:WAVCIS:CSI06:1,2009-02-08T11:00:00Z,28.8667,-90.4833,18.11,11111222 
WAVCIS,ioos:station:WAVCIS:CSI06:1,2009-02-08T12:00:00Z,28.8667,-90.4833,18.18,11111222 
WAVCIS,ioos:station:WAVCIS:CSI06:1,2009-02-08T13:00:00Z,28.8667,-90.4833,18.2,11111222 
WAVCIS,ioos:station:WAVCIS:CSI06:1,2009-02-08T14:00:00Z,28.8667,-90.4833,17.82,11111222 
WAVCIS,ioos:station:WAVCIS:CSI06:1,2009-02-08T15:00:00Z,28.8667,-90.4833,17.8,11111222 
WAVCIS,ioos:station:WAVCIS:CSI06:1,2009-02-08T16:00:00Z,28.8667,-90.4833,18.22,11111222 
WAVCIS,ioos:station:WAVCIS:CSI06:1,2009-02-08T17:00:00Z,28.8667,-90.4833,18.42,11111222 
WAVCIS,ioos:station:WAVCIS:CSI06:1,2009-02-08T18:00:00Z,28.8667,-90.4833,18.51,11111222 
WAVCIS,ioos:station:WAVCIS:CSI06:1,2009-02-08T19:00:00Z,28.8667,-90.4833,18.53,11111222 
WAVCIS,ioos:station:WAVCIS:CSI06:1,2009-02-08T20:00:00Z,28.8667,-90.4833,18.53,11111222 
WAVCIS,ioos:station:WAVCIS:CSI06:1,2009-02-08T21:00:00Z,28.8667,-90.4833,18.55,11111222 
WAVCIS,ioos:station:WAVCIS:CSI06:1,2009-02-08T22:00:00Z,28.8667,-90.4833,18.63,11111222 
WAVCIS,ioos:station:WAVCIS:CSI06:1,2009-02-08T23:00:00Z,28.8667,-90.4833,18.61,11111222 
WAVCIS,ioos:station:WAVCIS:CSI06:1,2009-02-09T00:00:00Z,28.8667,-90.4833,18.29,11111222 
WAVCIS,ioos:station:WAVCIS:CSI06:1,2009-02-09T01:00:00Z,28.8667,-90.4833,18.34,11111222 
WAVCIS,ioos:station:WAVCIS:CSI06:1,2009-02-09T02:00:00Z,28.8667,-90.4833,18.46,11111222 
WAVCIS,ioos:station:WAVCIS:CSI06:1,2009-02-09T03:00:00Z,28.8667,-90.4833,18.35,11111222 
WAVCIS,ioos:station:WAVCIS:CSI06:1,2009-02-09T04:00:00Z,28.8667,-90.4833,18.46,11111222 
WAVCIS,ioos:station:WAVCIS:CSI06:1,2009-02-09T05:00:00Z,28.8667,-90.4833,18.77,11111222 
WAVCIS,ioos:station:WAVCIS:CSI06:1,2009-02-09T06:00:00Z,28.8667,-90.4833,18.59,11111222 
WAVCIS,ioos:station:WAVCIS:CSI06:1,2009-02-09T07:00:00Z,28.8667,-90.4833,18.69,11111222 
WAVCIS,ioos:station:WAVCIS:CSI06:1,2009-02-09T08:00:00Z,28.8667,-90.4833,18.76,11111222 
WAVCIS,ioos:station:WAVCIS:CSI06:1,2009-02-09T09:00:00Z,28.8667,-90.4833,19.02,11111222 
WAVCIS,ioos:station:WAVCIS:CSI06:1,2009-02-09T10:00:00Z,28.8667,-90.4833,19.05,11111222 
WAVCIS,ioos:station:WAVCIS:CSI06:1,2009-02-09T11:00:00Z,28.8667,-90.4833,19.11,11111222 
WAVCIS,ioos:station:WAVCIS:CSI06:1,2009-02-09T12:00:00Z,28.8667,-90.4833,19.21,11111222 
WAVCIS,ioos:station:WAVCIS:CSI06:1,2009-02-09T13:00:00Z,28.8667,-90.4833,19.36,11111222 
WAVCIS,ioos:station:WAVCIS:CSI06:1,2009-02-09T14:00:00Z,28.8667,-90.4833,19.51,11111222 
WAVCIS,ioos:station:WAVCIS:CSI06:1,2009-02-09T15:00:00Z,28.8667,-90.4833,20.11,11111222 
WAVCIS,ioos:station:WAVCIS:CSI06:1,2009-02-09T16:00:00Z,28.8667,-90.4833,19.96,11111222 
WAVCIS,ioos:station:WAVCIS:CSI06:1,2009-02-09T17:00:00Z,28.8667,-90.4833,20.07,11111222 
WAVCIS,ioos:station:WAVCIS:CSI06:1,2009-02-09T18:00:00Z,28.8667,-90.4833,19.98,11111222 
WAVCIS,ioos:station:WAVCIS:CSI06:1,2009-02-09T19:00:00Z,28.8667,-90.4833,19.99,11111222 
WAVCIS,ioos:station:WAVCIS:CSI06:1,2009-02-09T20:00:00Z,28.8667,-90.4833,20.01,11111222 
WAVCIS,ioos:station:WAVCIS:CSI06:1,2009-02-09T21:00:00Z,28.8667,-90.4833,19.86,11111222 
WAVCIS,ioos:station:WAVCIS:CSI06:1,2009-02-09T22:00:00Z,28.8667,-90.4833,20.12,11111222 
WAVCIS,ioos:station:WAVCIS:CSI06:1,2009-02-09T23:00:00Z,28.8667,-90.4833,19.93,11111222 
WAVCIS,ioos:station:WAVCIS:CSI06:1,2009-02-10T00:00:00Z,28.8667,-90.4833,19.41,11111222 
WAVCIS,ioos:station:WAVCIS:CSI06:1,2009-02-10T01:00:00Z,28.8667,-90.4833,18.53,11111222 
WAVCIS,ioos:station:WAVCIS:CSI06:1,2009-02-10T02:00:00Z,28.8667,-90.4833,19.28,11111222 
WAVCIS,ioos:station:WAVCIS:CSI06:1,2009-02-10T03:00:00Z,28.8667,-90.4833,19.01,11111222 
WAVCIS,ioos:station:WAVCIS:CSI06:1,2009-02-10T04:00:00Z,28.8667,-90.4833,18.83,11111222 
WAVCIS,ioos:station:WAVCIS:CSI06:1,2009-02-10T05:00:00Z,28.8667,-90.4833,19.04,11111222 
WAVCIS,ioos:station:WAVCIS:CSI06:1,2009-02-10T06:00:00Z,28.8667,-90.4833,18.22,11111222 
WAVCIS,ioos:station:WAVCIS:CSI06:1,2009-02-10T07:00:00Z,28.8667,-90.4833,18.18,11111222 
WAVCIS,ioos:station:WAVCIS:CSI06:1,2009-02-10T08:00:00Z,28.8667,-90.4833,17.85,11111222 
WAVCIS,ioos:station:WAVCIS:CSI06:1,2009-02-10T09:00:00Z,28.8667,-90.4833,18.39,11111222 
WAVCIS,ioos:station:WAVCIS:CSI06:1,2009-02-10T10:00:00Z,28.8667,-90.4833,18.93,11111222 
WAVCIS,ioos:station:WAVCIS:CSI06:1,2009-02-10T11:00:00Z,28.8667,-90.4833,19.26,11111222 
WAVCIS,ioos:station:WAVCIS:CSI06:1,2009-02-10T12:00:00Z,28.8667,-90.4833,19.42,11111222 
WAVCIS,ioos:station:WAVCIS:CSI06:1,2009-02-10T13:00:00Z,28.8667,-90.4833,19.56,11111222 
WAVCIS,ioos:station:WAVCIS:CSI06:1,2009-02-10T14:00:00Z,28.8667,-90.4833,20.25,11111222 
WAVCIS,ioos:station:WAVCIS:CSI06:1,2009-02-10T15:00:00Z,28.8667,-90.4833,20.26,11111222 
WAVCIS,ioos:station:WAVCIS:CSI06:1,2009-02-10T16:00:00Z,28.8667,-90.4833,20.3,11111222 
WAVCIS,ioos:station:WAVCIS:CSI06:1,2009-02-10T17:00:00Z,28.8667,-90.4833,20.45,11111222 
WAVCIS,ioos:station:WAVCIS:CSI06:1,2009-02-10T18:00:00Z,28.8667,-90.4833,20.5,11111222 
WAVCIS,ioos:station:WAVCIS:CSI06:1,2009-02-10T19:00:00Z,28.8667,-90.4833,20.45,11111222 
WAVCIS,ioos:station:WAVCIS:CSI06:1,2009-02-10T20:00:00Z,28.8667,-90.4833,20.71,11111222 
WAVCIS,ioos:station:WAVCIS:CSI06:1,2009-02-10T21:00:00Z,28.8667,-90.4833,20.72,11111222 
WAVCIS,ioos:station:WAVCIS:CSI06:1,2009-02-10T22:00:00Z,28.8667,-90.4833,20.59,11111222 
WAVCIS,ioos:station:WAVCIS:CSI06:1,2009-02-10T23:00:00Z,28.8667,-90.4833,20.61,11111222 
WAVCIS,ioos:station:WAVCIS:CSI06:1,2009-02-11T00:00:00Z,28.8667,-90.4833,20.54,11111222 
WAVCIS,ioos:station:WAVCIS:CSI06:1,2009-02-11T01:00:00Z,28.8667,-90.4833,20.46,11111222 
WAVCIS,ioos:station:WAVCIS:CSI06:1,2009-02-11T02:00:00Z,28.8667,-90.4833,20.52,11111222 
WAVCIS,ioos:station:WAVCIS:CSI06:1,2009-02-11T03:00:00Z,28.8667,-90.4833,20.49,11111222 
WAVCIS,ioos:station:WAVCIS:CSI06:1,2009-02-11T04:00:00Z,28.8667,-90.4833,20.47,11111222 
WAVCIS,ioos:station:WAVCIS:CSI06:1,2009-02-11T05:00:00Z,28.8667,-90.4833,20.28,11111222 
WAVCIS,ioos:station:WAVCIS:CSI06:1,2009-02-11T06:00:00Z,28.8667,-90.4833,20.36,11111222 
WAVCIS,ioos:station:WAVCIS:CSI06:1,2009-02-11T07:00:00Z,28.8667,-90.4833,20.41,11111222 
WAVCIS,ioos:station:WAVCIS:CSI06:1,2009-02-11T08:00:00Z,28.8667,-90.4833,20.64,11111222 
WAVCIS,ioos:station:WAVCIS:CSI06:1,2009-02-11T09:00:00Z,28.8667,-90.4833,20.67,11111222 
WAVCIS,ioos:station:WAVCIS:CSI06:1,2009-02-11T10:00:00Z,28.8667,-90.4833,20.67,11111222 
WAVCIS,ioos:station:WAVCIS:CSI06:1,2009-02-11T11:00:00Z,28.8667,-90.4833,20.74,11111222 
WAVCIS,ioos:station:WAVCIS:CSI06:1,2009-02-11T12:00:00Z,28.8667,-90.4833,20.7,11111222 
WAVCIS,ioos:station:WAVCIS:CSI06:1,2009-02-11T13:00:00Z,28.8667,-90.4833,20.58,11111222 
WAVCIS,ioos:station:WAVCIS:CSI06:1,2009-02-11T14:00:00Z,28.8667,-90.4833,20.28,11111222 
WAVCIS,ioos:station:WAVCIS:CSI06:1,2009-02-11T15:00:00Z,28.8667,-90.4833,20.08,11111222 
WAVCIS,ioos:station:WAVCIS:CSI06:1,2009-02-11T16:00:00Z,28.8667,-90.4833,20.11,11111222 
WAVCIS,ioos:station:WAVCIS:CSI06:1,2009-02-11T17:00:00Z,28.8667,-90.4833,16.53,11111222 
WAVCIS,ioos:station:WAVCIS:CSI06:1,2009-02-11T18:00:00Z,28.8667,-90.4833,16.38,11111222 
WAVCIS,ioos:station:WAVCIS:CSI06:1,2009-02-11T19:00:00Z,28.8667,-90.4833,16.37,11111222 
WAVCIS,ioos:station:WAVCIS:CSI06:1,2009-02-11T20:00:00Z,28.8667,-90.4833,16.37,11111222 
WAVCIS,ioos:station:WAVCIS:CSI06:1,2009-02-11T21:00:00Z,28.8667,-90.4833,16.69,11111222 
WAVCIS,ioos:station:WAVCIS:CSI06:1,2009-02-11T22:00:00Z,28.8667,-90.4833,16.58,11111222 
WAVCIS,ioos:station:WAVCIS:CSI06:1,2009-02-11T23:00:00Z,28.8667,-90.4833,16.64,11111222 
WAVCIS,ioos:station:WAVCIS:CSI06:1,2009-02-12T00:00:00Z,28.8667,-90.4833,16.44,11111222 
WAVCIS,ioos:station:WAVCIS:CSI06:1,2009-02-12T01:00:00Z,28.8667,-90.4833,16.36,11111222 
WAVCIS,ioos:station:WAVCIS:CSI06:1,2009-02-12T02:00:00Z,28.8667,-90.4833,16.26,11111222 
WAVCIS,ioos:station:WAVCIS:CSI06:1,2009-02-12T14:00:00Z,28.8667,-90.4833,15.8,11111222 
WAVCIS,ioos:station:WAVCIS:CSI06:1,2009-02-12T15:00:00Z,28.8667,-90.4833,16.0,11111222 